| time (UTC) | temp F | wind direction | speed MPH | gust MPH | rain 1hr in | rain 24hr in | rain mn in | humidity % | barometer mb |
| 20260504050439 | 50 | 152 | 0.0 | 0.0 | 0.00 | 0.00 | 0.00 | 80 | 1007.9 |
| 20260504045936 | 50 | 154 | 0.0 | 0.0 | 0.00 | 0.00 | 0.00 | 79 | 1007.6 |
| 20260504045432 | 50 | 153 | 0.0 | 0.0 | 0.00 | 0.00 | 0.00 | 78 | 1007.8 |
| 20260504044928 | 51 | 147 | 0.0 | 0.0 | 0.00 | 0.00 | 0.00 | 78 | 1007.8 |
| 20260504044426 | 51 | 154 | 0.0 | 0.0 | 0.00 | 0.00 | 0.00 | 78 | 1007.8 |
| 20260504043923 | 51 | 153 | 0.0 | 0.0 | 0.00 | 0.00 | 0.00 | 78 | 1007.9 |
| 20260504043420 | 51 | 153 | 0.0 | 0.0 | 0.00 | 0.00 | 0.00 | 77 | 1007.9 |
| 20260504042917 | 51 | 147 | 0.0 | 0.0 | 0.00 | 0.00 | 0.00 | 77 | 1008.2 |
| 20260504042414 | 51 | 158 | 0.0 | 0.0 | 0.00 | 0.00 | 0.00 | 75 | 1008.1 |
| 20260504041910 | 52 | 153 | 0.0 | 0.0 | 0.00 | 0.00 | 0.00 | 75 | 1008.1 |
| 20260504041406 | 52 | 158 | 0.0 | 0.0 | 0.00 | 0.00 | 0.00 | 75 | 1008.0 |
| 20260504040902 | 52 | 152 | 0.0 | 0.0 | 0.00 | 0.00 | 0.00 | 74 | 1008.0 |
| 20260504040400 | 52 | 149 | 0.0 | 0.0 | 0.00 | 0.00 | 0.00 | 74 | 1008.0 |
| 20260504035856 | 53 | 158 | 0.0 | 0.0 | 0.00 | 0.00 | 0.00 | 74 | 1008.1 |
| 20260504035354 | 53 | 153 | 0.0 | 0.0 | 0.00 | 0.00 | 0.00 | 73 | 1008.1 |
| 20260504034850 | 53 | 151 | 0.0 | 0.0 | 0.00 | 0.00 | 0.00 | 73 | 1008.1 |
| 20260504034348 | 54 | 155 | 0.0 | 0.0 | 0.00 | 0.00 | 0.00 | 73 | 1008.6 |
| 20260504033844 | 54 | 158 | 0.0 | 0.0 | 0.00 | 0.00 | 0.00 | 73 | 1008.6 |
| 20260504033343 | 54 | 169 | 0.0 | 0.0 | 0.00 | 0.00 | 0.00 | 73 | 1008.3 |
| 20260504032839 | 54 | 169 | 0.0 | 0.0 | 0.00 | 0.00 | 0.00 | 71 | 1008.4 |
| 20260504032336 | 54 | 160 | 0.0 | 0.0 | 0.00 | 0.00 | 0.00 | 74 | 1008.4 |
| 20260504031833 | 54 | 152 | 0.0 | 0.0 | 0.00 | 0.00 | 0.00 | 73 | 1008.6 |
| 20260504031330 | 53 | 154 | 0.0 | 0.0 | 0.00 | 0.00 | 0.00 | 73 | 1008.4 |
| 20260504030826 | 53 | 155 | 0.0 | 0.0 | 0.00 | 0.00 | 0.00 | 74 | 1008.7 |
| 20260504030324 | 53 | 155 | 0.0 | 0.0 | 0.00 | 0.00 | 0.00 | 74 | 1008.6 |
| 20260504025820 | 53 | 151 | 0.0 | 0.0 | 0.00 | 0.00 | 0.00 | 73 | 1008.7 |
| 20260504025317 | 53 | 151 | 0.0 | 0.0 | 0.00 | 0.00 | 0.00 | 72 | 1008.8 |
| 20260504024813 | 54 | 155 | 0.0 | 0.0 | 0.00 | 0.00 | 0.00 | 73 | 1008.6 |
| 20260504024310 | 54 | 156 | 0.0 | 0.0 | 0.00 | 0.00 | 0.00 | 72 | 1008.8 |
| 20260504023807 | 54 | 168 | 0.0 | 0.0 | 0.00 | 0.00 | 0.00 | 72 | 1008.4 |
| 20260504023303 | 54 | 160 | 0.0 | 0.0 | 0.00 | 0.00 | 0.00 | 72 | 1008.7 |
| 20260504022759 | 54 | 156 | 0.0 | 0.0 | 0.00 | 0.00 | 0.00 | 71 | 1008.6 |
| 20260504022256 | 55 | 165 | 0.0 | 0.0 | 0.00 | 0.00 | 0.00 | 71 | 1008.8 |
| 20260504021752 | 55 | 156 | 0.0 | 0.0 | 0.00 | 0.00 | 0.00 | 69 | 1008.6 |
| 20260504021250 | 55 | 171 | 0.0 | 0.0 | 0.00 | 0.00 | 0.00 | 70 | 1008.6 |
| 20260504020747 | 56 | 164 | 0.0 | 0.0 | 0.00 | 0.00 | 0.00 | 67 | 1008.6 |
| 20260504020243 | 56 | 179 | 0.0 | 0.0 | 0.00 | 0.00 | 0.00 | 65 | 1008.7 |
| 20260504015739 | 55 | 162 | 0.0 | 0.0 | 0.00 | 0.00 | 0.00 | 67 | 1008.7 |
| 20260504015236 | 55 | 173 | 0.0 | 0.0 | 0.00 | 0.00 | 0.00 | 69 | 1008.3 |
| 20260504014732 | 55 | 166 | 0.0 | 0.0 | 0.00 | 0.00 | 0.00 | 70 | 1008.8 |
| 20260504014228 | 55 | 156 | 0.0 | 0.0 | 0.00 | 0.00 | 0.00 | 70 | 1008.6 |
| 20260504013726 | 55 | 144 | 0.0 | 0.0 | 0.00 | 0.00 | 0.00 | 68 | 1008.6 |
| 20260504013224 | 56 | 167 | 0.0 | 0.0 | 0.00 | 0.00 | 0.00 | 68 | 1008.4 |
| 20260504012720 | 56 | 163 | 0.0 | 0.0 | 0.00 | 0.00 | 0.00 | 66 | 1008.3 |
| 20260504012218 | 56 | 163 | 0.0 | 0.0 | 0.00 | 0.00 | 0.00 | 66 | 1008.6 |
| 20260504011715 | 57 | 185 | 0.0 | 0.0 | 0.00 | 0.00 | 0.00 | 65 | 1008.4 |
| 20260504011212 | 57 | 228 | 0.0 | 0.0 | 0.00 | 0.00 | 0.00 | 63 | 1008.7 |
| 20260504010708 | 57 | 187 | 0.0 | 0.0 | 0.00 | 0.00 | 0.00 | 63 | 1008.6 |
| 20260504010203 | 57 | 190 | 0.0 | 0.0 | 0.00 | 0.00 | 0.00 | 64 | 1008.4 |
| 20260504005700 | 57 | 176 | 0.0 | 0.0 | 0.00 | 0.00 | 0.00 | 63 | 1008.4 |
| 20260504005157 | 57 | 173 | 0.0 | 0.0 | 0.00 | 0.00 | 0.00 | 64 | 1008.7 |
| 20260504004655 | 58 | 173 | 0.0 | 1.0 | 0.00 | 0.00 | 0.00 | 62 | 1008.8 |
| 20260504004152 | 58 | 182 | 1.0 | 1.0 | 0.00 | 0.00 | 0.00 | 62 | 1008.6 |
| 20260504003648 | 58 | 199 | 0.0 | 0.0 | 0.00 | 0.00 | 0.00 | 61 | 1008.4 |
| 20260504003145 | 59 | 239 | 2.0 | 2.0 | 0.00 | 0.00 | 0.00 | 62 | 1008.7 |
| 20260504002642 | 58 | 190 | 2.0 | 2.0 | 0.00 | 0.00 | 0.00 | 61 | 1008.8 |
| 20260504002139 | 59 | 227 | 2.0 | 3.0 | 0.00 | 0.00 | 0.00 | 62 | 1008.7 |
| 20260504001637 | 58 | 185 | 0.0 | 0.0 | 0.00 | 0.00 | 0.00 | 61 | 1008.3 |
| 20260504001132 | 58 | 199 | 0.0 | 0.0 | 0.00 | 0.00 | 0.00 | 63 | 1008.6 |
| 20260504000630 | 59 | 178 | 1.0 | 1.0 | 0.00 | 0.00 | 0.00 | 61 | 1008.7 |
| 20260504000127 | 58 | 247 | 3.0 | 3.0 | 0.00 | 0.00 | 0.00 | 62 | 1008.7 |
| 20260503235625 | 58 | 232 | 3.0 | 3.0 | 0.00 | 0.00 | 0.00 | 60 | 1008.6 |
| 20260503235122 | 59 | 162 | 0.0 | 0.0 | 0.00 | 0.00 | 0.00 | 61 | 1008.8 |
| 20260503234620 | 59 | 218 | 0.0 | 0.0 | 0.00 | 0.00 | 0.00 | 59 | 1008.8 |
| 20260503234118 | 59 | 192 | 0.0 | 0.0 | 0.00 | 0.00 | 0.00 | 62 | 1008.9 |
| 20260503233615 | 59 | 0 | 3.0 | 3.0 | 0.00 | 0.00 | 0.00 | 59 | 1008.9 |
| 20260503233110 | 59 | 211 | 0.0 | 0.0 | 0.00 | 0.00 | 0.00 | 62 | 1008.9 |
| 20260503232607 | 59 | 163 | 2.0 | 3.0 | 0.00 | 0.00 | 0.00 | 58 | 1009.2 |
| 20260503232105 | 59 | 218 | 3.0 | 3.0 | 0.00 | 0.00 | 0.00 | 59 | 1009.0 |
| 20260503231603 | 59 | 176 | 0.0 | 0.0 | 0.00 | 0.00 | 0.00 | 61 | 1009.2 |
| 20260503231059 | 59 | 272 | 0.0 | 0.0 | 0.00 | 0.00 | 0.00 | 59 | 1008.9 |
| 20260503230555 | 59 | 158 | 3.0 | 5.0 | 0.00 | 0.00 | 0.00 | 58 | 1009.2 |
| 20260503230053 | 59 | 229 | 3.0 | 5.0 | 0.00 | 0.00 | 0.00 | 57 | 1009.3 |
| 20260503225550 | 59 | 176 | 0.0 | 0.0 | 0.00 | 0.00 | 0.00 | 57 | 1009.3 |
| 20260503225045 | 59 | 239 | 0.0 | 0.0 | 0.00 | 0.00 | 0.00 | 58 | 1009.3 |
| 20260503224543 | 59 | 203 | 1.0 | 1.0 | 0.00 | 0.00 | 0.00 | 61 | 1009.3 |
| 20260503224040 | 59 | 179 | 0.0 | 0.0 | 0.00 | 0.00 | 0.00 | 59 | 1009.0 |
| 20260503223538 | 59 | 287 | 3.0 | 5.0 | 0.00 | 0.00 | 0.00 | 57 | 1009.2 |
| 20260503223033 | 59 | 169 | 0.0 | 1.0 | 0.00 | 0.00 | 0.00 | 56 | 1009.2 |
| 20260503222532 | 59 | 244 | 5.0 | 7.0 | 0.00 | 0.00 | 0.00 | 55 | 1009.3 |
| 20260503222030 | 60 | 213 | 2.0 | 2.0 | 0.00 | 0.00 | 0.00 | 58 | 1009.3 |
| 20260503221528 | 60 | 242 | 2.0 | 2.0 | 0.00 | 0.00 | 0.00 | 56 | 1009.2 |
| 20260503221025 | 60 | 209 | 2.0 | 2.0 | 0.00 | 0.00 | 0.00 | 56 | 1008.9 |
| 20260503220521 | 60 | 249 | 5.0 | 6.0 | 0.00 | 0.00 | 0.00 | 54 | 1009.1 |
| 20260503220017 | 60 | 243 | 3.0 | 3.0 | 0.00 | 0.00 | 0.00 | 54 | 1009.1 |
| 20260503215515 | 60 | 235 | 4.0 | 6.0 | 0.00 | 0.00 | 0.00 | 52 | 1009.3 |
| 20260503215012 | 60 | 239 | 5.0 | 6.0 | 0.00 | 0.00 | 0.00 | 54 | 1009.3 |
| 20260503214510 | 61 | 286 | 3.0 | 5.0 | 0.00 | 0.00 | 0.00 | 53 | 1009.5 |
| 20260503214006 | 61 | 249 | 3.0 | 3.0 | 0.00 | 0.00 | 0.00 | 52 | 1009.6 |
| 20260503213505 | 61 | 262 | 4.0 | 5.0 | 0.00 | 0.00 | 0.00 | 51 | 1009.7 |
| 20260503213001 | 62 | 250 | 6.0 | 7.0 | 0.00 | 0.00 | 0.00 | 52 | 1009.6 |
| 20260503212459 | 62 | 245 | 3.0 | 3.0 | 0.00 | 0.00 | 0.00 | 50 | 1009.3 |
| 20260503211956 | 62 | 258 | 5.0 | 7.0 | 0.00 | 0.00 | 0.00 | 53 | 1009.7 |
| 20260503211453 | 63 | 249 | 3.0 | 6.0 | 0.00 | 0.00 | 0.00 | 53 | 1009.7 |
| 20260503210948 | 63 | 228 | 2.0 | 3.0 | 0.00 | 0.00 | 0.00 | 54 | 1009.9 |
| 20260503210445 | 61 | 259 | 3.0 | 5.0 | 0.00 | 0.00 | 0.00 | 58 | 1010.2 |
| 20260503205940 | 60 | 225 | 3.0 | 3.0 | 0.00 | 0.00 | 0.00 | 55 | 1010.2 |
| 20260503205437 | 60 | 251 | 0.0 | 0.0 | 0.00 | 0.00 | 0.00 | 53 | 1010.3 |
| 20260503204933 | 60 | 270 | 3.0 | 3.0 | 0.00 | 0.00 | 0.00 | 51 | 1010.7 |
| 20260503204430 | 60 | 251 | 5.0 | 6.0 | 0.00 | 0.00 | 0.00 | 53 | 1010.4 |
| 20260503203927 | 61 | 269 | 2.0 | 6.0 | 0.00 | 0.00 | 0.00 | 53 | 1010.6 |
| 20260503203425 | 62 | 269 | 5.0 | 6.0 | 0.00 | 0.00 | 0.00 | 55 | 1010.6 |
| 20260503202921 | 63 | 251 | 4.0 | 5.0 | 0.00 | 0.00 | 0.00 | 51 | 1010.8 |
| 20260503202420 | 62 | 208 | 2.0 | 2.0 | 0.00 | 0.00 | 0.00 | 53 | 1011.0 |
| 20260503201918 | 60 | 229 | 0.0 | 0.0 | 0.00 | 0.00 | 0.00 | 54 | 1011.1 |
| 20260503201415 | 61 | 236 | 3.0 | 3.0 | 0.00 | 0.00 | 0.00 | 53 | 1011.6 |
| 20260503200912 | 61 | 245 | 4.0 | 5.0 | 0.00 | 0.00 | 0.00 | 55 | 1011.4 |
| 20260503200408 | 62 | 251 | 6.0 | 6.0 | 0.00 | 0.00 | 0.00 | 49 | 1011.5 |
| 20260503195905 | 61 | 243 | 3.0 | 3.0 | 0.00 | 0.00 | 0.00 | 54 | 1011.5 |
| 20260503195402 | 62 | 247 | 5.0 | 6.0 | 0.00 | 0.00 | 0.00 | 54 | 1011.7 |
| 20260503194859 | 61 | 236 | 0.0 | 0.0 | 0.00 | 0.00 | 0.00 | 55 | 1012.1 |
| 20260503194355 | 61 | 203 | 2.0 | 2.0 | 0.00 | 0.00 | 0.00 | 53 | 1012.2 |
| 20260503193851 | 61 | 273 | 5.0 | 7.0 | 0.00 | 0.00 | 0.00 | 53 | 1012.3 |
| 20260503193347 | 60 | 217 | 3.0 | 3.0 | 0.00 | 0.00 | 0.00 | 52 | 1012.6 |
| 20260503192843 | 60 | 205 | 1.0 | 2.0 | 0.00 | 0.00 | 0.00 | 58 | 1012.8 |
| 20260503192339 | 60 | 206 | 2.0 | 2.0 | 0.00 | 0.00 | 0.00 | 53 | 1013.0 |
| 20260503191835 | 60 | 209 | 5.0 | 7.0 | 0.00 | 0.00 | 0.00 | 53 | 1012.9 |
| 20260503191332 | 61 | 257 | 4.0 | 5.0 | 0.00 | 0.00 | 0.00 | 52 | 1012.8 |
| 20260503190829 | 60 | 253 | 5.0 | 6.0 | 0.00 | 0.00 | 0.00 | 52 | 1012.4 |
| 20260503190326 | 59 | 254 | 3.0 | 5.0 | 0.00 | 0.00 | 0.00 | 55 | 1012.8 |
| 20260503185823 | 61 | 285 | 5.0 | 8.0 | 0.00 | 0.00 | 0.00 | 52 | 1012.6 |
| 20260503185319 | 61 | 244 | 5.0 | 5.0 | 0.00 | 0.00 | 0.00 | 51 | 1012.6 |
| 20260503184814 | 61 | 274 | 5.0 | 7.0 | 0.00 | 0.00 | 0.00 | 54 | 1012.8 |
| 20260503184310 | 62 | 251 | 3.0 | 3.0 | 0.00 | 0.00 | 0.00 | 49 | 1012.5 |
| 20260503183806 | 63 | 185 | 0.0 | 1.0 | 0.00 | 0.00 | 0.00 | 50 | 1012.8 |
| 20260503183304 | 63 | 232 | 3.0 | 3.0 | 0.00 | 0.00 | 0.00 | 49 | 1012.6 |
| 20260503182801 | 62 | 241 | 5.0 | 6.0 | 0.00 | 0.00 | 0.00 | 53 | 1013.0 |
| 20260503182300 | 61 | 328 | 1.0 | 1.0 | 0.00 | 0.00 | 0.00 | 56 | 1013.1 |
| 20260503181756 | 60 | 239 | 3.0 | 3.0 | 0.00 | 0.00 | 0.00 | 53 | 1013.5 |
| 20260503181253 | 61 | 234 | 1.0 | 2.0 | 0.00 | 0.00 | 0.00 | 55 | 1013.4 |
| 20260503180749 | 60 | 265 | 6.0 | 8.0 | 0.00 | 0.00 | 0.00 | 52 | 1013.7 |
| 20260503180248 | 60 | 188 | 0.0 | 0.0 | 0.00 | 0.00 | 0.00 | 52 | 1013.8 |
| 20260503175744 | 59 | 235 | 4.0 | 5.0 | 0.00 | 0.00 | 0.00 | 52 | 1013.8 |
| 20260503175242 | 59 | 249 | 5.0 | 6.0 | 0.00 | 0.00 | 0.00 | 54 | 1013.9 |
| 20260503174738 | 60 | 259 | 2.0 | 2.0 | 0.00 | 0.00 | 0.00 | 55 | 1014.2 |
| 20260503174236 | 60 | 246 | 4.0 | 5.0 | 0.00 | 0.00 | 0.00 | 54 | 1014.4 |
| 20260503173736 | 59 | 232 | 5.0 | 6.0 | 0.00 | 0.00 | 0.00 | 57 | 1014.4 |
| 20260503173232 | 59 | 216 | 3.0 | 3.0 | 0.00 | 0.00 | 0.00 | 53 | 1014.4 |
| 20260503172729 | 59 | 235 | 0.0 | 1.0 | 0.00 | 0.00 | 0.00 | 56 | 1014.5 |
| 20260503172227 | 58 | 232 | 1.0 | 2.0 | 0.00 | 0.00 | 0.00 | 55 | 1014.7 |
| 20260503171723 | 57 | 244 | 4.0 | 5.0 | 0.00 | 0.00 | 0.00 | 52 | 1014.9 |
| 20260503171220 | 59 | 260 | 5.0 | 7.0 | 0.00 | 0.00 | 0.00 | 52 | 1014.8 |
| 20260503170717 | 59 | 186 | 3.0 | 5.0 | 0.00 | 0.00 | 0.00 | 51 | 1014.9 |
| 20260503170214 | 58 | 252 | 5.0 | 6.0 | 0.00 | 0.00 | 0.00 | 53 | 1015.0 |
| 20260503160136 | 59 | 252 | 4.0 | 5.0 | 0.00 | 0.00 | 0.00 | 54 | 1015.6 |
| 20260503150606 | 58 | 243 | 0.0 | 0.0 | 0.00 | 0.00 | 0.00 | 59 | 1016.1 |
| 20260503130955 | 48 | 211 | 0.0 | 0.0 | 0.00 | 0.00 | 0.00 | 64 | 1016.4 |
| 20260503130453 | 48 | 247 | 3.0 | 5.0 | 0.00 | 0.00 | 0.00 | 67 | 1016.3 |
| 20260503110349 | 40 | 236 | 0.0 | 0.0 | 0.00 | 0.00 | 0.00 | 76 | 1015.9 |
| 20260503090241 | 36 | 169 | 0.0 | 0.0 | 0.00 | 0.00 | 0.00 | 94 | 1015.6 |
| 20260503081208 | 36 | 151 | 0.0 | 0.0 | 0.00 | 0.00 | 0.00 | 94 | 1015.6 |
| 20260503080704 | 36 | 151 | 0.0 | 0.0 | 0.00 | 0.00 | 0.00 | 94 | 1015.5 |
| 20260503080201 | 36 | 151 | 0.0 | 0.0 | 0.00 | 0.00 | 0.00 | 94 | 1015.8 |
| 20260503072638 | 36 | 151 | 0.0 | 0.0 | 0.00 | 0.00 | 0.00 | 95 | 1015.6 |
| 20260503072135 | 36 | 151 | 0.0 | 0.0 | 0.00 | 0.00 | 0.00 | 94 | 1015.5 |
| 20260503071631 | 36 | 151 | 0.0 | 0.0 | 0.00 | 0.00 | 0.00 | 94 | 1015.6 |
| 20260503071128 | 36 | 151 | 0.0 | 0.0 | 0.00 | 0.00 | 0.00 | 94 | 1015.8 |
| 20260503070625 | 36 | 151 | 0.0 | 0.0 | 0.00 | 0.00 | 0.00 | 94 | 1015.5 |
| 20260503070123 | 36 | 151 | 0.0 | 0.0 | 0.00 | 0.00 | 0.00 | 94 | 1015.6 |